#timestamp,LO_Frequency,Hit,StdDev 
1552914015.5,286047003.2,N
1552914035.3,286047003.5,N
1552914055.1,286047003.4,N
1552914075.9,286047003.3,N
1552914095.7,286047005.7,Y
1552914115.5,286047001.9,P
1552914135.4,286047001.5,N
1552914155.2,286047001.4,N
1552914175.0,286047001.7,N
1552914175.9,286047001.7,N
1552914195.8,286047002.1,Y
1552914215.6,286047000.6,P
1552914235.4,286047000.1,N
1552914255.3,286047000.6,N
1552914275.1,286047000.7,N
1552914276.0,286047000.7,N
1552914295.8,286046999.9,N
1552914315.7,286047000.6,N
1552914335.5,286047001.0,N
1552914355.3,286047000.3,N
1552914375.1,286047000.7,N
1552914395.9,286047001.2,N
1552914415.7,286046998.1,Y
1552914435.5,286046998.5,P
1552914455.4,286046998.2,N
1552914475.2,286046999.0,N
1552914495.0,286046999.0,N
1552914495.9,286046999.0,N
1552914515.8,286046998.7,N
1552914535.6,286046999.2,N
1552914555.5,286046996.5,Y
1552914575.3,286046998.5,P
1552914595.1,286046998.8,P
1552914615.8,286046999.0,P
1552914635.7,286046999.4,N
1552914655.5,286046999.1,Y
1552914675.3,286046998.4,P
1552914695.2,286046998.6,P
1552914715.0,286046999.0,P
1552914715.9,286046999.0,Y
1552914735.7,286047000.4,P
1552914755.6,286046998.5,N
1552914775.4,286046998.7,N
1552914795.2,286046996.9,Y
1552914815.1,286046999.1,P
1552914816.0,286046999.1,P
1552914835.8,286046998.7,P
1552914855.7,286046998.9,Y
1552914875.5,286046998.8,P
1552914895.3,286046999.1,P
1552914915.1,286046996.6,P
1552914935.9,286046997.0,N
1552914955.7,286046997.1,N
1552914975.5,286046997.4,N
1552914995.4,286046997.1,N
1552915015.2,286046995.0,Y
1552915035.0,286046998.9,P
1552915035.9,286046998.9,N
1552915055.8,286046999.5,N
1552915075.6,286046996.9,Y
1552915095.4,286046999.6,P
1552915115.3,286046997.1,P
1552915135.1,286046997.3,N
1552915155.8,286046997.5,N
1552915175.7,286046997.7,N
1552915195.5,286046997.9,N
1552915215.3,286046995.5,Y
1552915235.2,286046996.9,P
1552915255.9,286046996.5,P
1552915275.7,286046997.3,P
1552915295.6,286046996.7,Y
1552915315.4,286047001.2,P
1552915335.2,286047000.7,N
1552915355.1,286046998.7,N
1552915356.0,286046998.7,N
1552915375.8,286046998.4,N
1552915395.6,286046999.3,N
1552915415.5,286046999.6,N
1552915435.3,286046997.0,N
1552915455.1,286046997.7,N
1552915475.9,286046997.9,N
1552915495.7,286046997.8,N
1552915515.5,286046995.3,Y
1552915535.4,286046996.8,P
1552915555.2,286046998.0,N
1552915575.0,286046995.0,P
1552915575.9,286046995.0,Y
1552915595.8,286046998.3,P
1552915615.6,286046999.3,N
1552915635.4,286046999.3,N
1552915655.3,286046996.7,Y
1552915675.1,286046998.8,P
1552915676.0,286046998.8,P
1552915695.8,286046996.5,P
1552915715.7,286046996.9,Y
1552915735.5,286046998.6,P
1552915755.3,286046998.6,P
1552915775.2,286046999.6,N
1552915795.9,286046997.8,Y
1552915815.7,286046998.9,P
1552915835.6,286046997.7,P
1552915855.4,286046996.6,P
1552915875.2,286046996.8,Y
1552915895.1,286046998.1,P
1552915896.0,286046998.1,P
1552915915.8,286046999.1,P
1552915935.6,286046999.6,N
1552915955.5,286046996.7,Y
1552915975.3,286046998.9,P
1552915995.1,286046999.1,P
1552916015.9,286046996.6,P
1552916035.7,286046996.8,Y
1552916055.5,286046999.6,P
1552916075.4,286046996.9,P
1552916095.2,286046996.6,P
1552916115.0,286046996.8,N
1552916115.9,286046996.8,N
1552916135.8,286046997.7,N
1552916155.6,286046995.3,Y
1552916175.4,286046998.8,P
1552916195.3,286046998.7,N
1552916215.1,286046999.0,N
1552916216.0,286046999.0,N
1552916235.8,286046996.9,Y
1552916255.7,286046998.7,P
1552916275.5,286046998.7,P
1552916295.3,286046999.4,P
1552916315.2,286046996.5,Y
1552916335.9,286046998.6,P
1552916355.7,286046998.5,P
1552916375.6,286046998.7,P
1552916395.4,286046996.6,Y
1552916415.2,286046998.3,P
1552916435.1,286046999.0,P
1552916436.0,286046999.0,P
1552916455.8,286046999.4,N
1552916475.6,286046996.8,Y
1552916495.5,286046999.0,P
1552916515.3,286046999.2,P
1552916535.1,286046996.5,P
1552916555.9,286046996.6,Y
1552916575.7,286046998.1,P
1552916595.5,286046998.2,P
1552916615.4,286046998.4,P
1552916635.2,286046999.3,Y
1552916655.0,286047000.7,P
1552916655.9,286047000.7,N
1552916675.8,286047000.8,N
1552916695.6,286046998.9,N
1552916715.4,286046998.4,N
1552916735.3,286046999.6,N
1552916755.1,286046996.6,Y
1552916756.0,286046996.6,P
1552916775.8,286046996.9,N
1552916795.7,286046996.8,N
1552916815.5,286046997.3,N
1552916835.3,286046997.6,N
1552916855.2,286046995.8,Y
1552916875.9,286046996.5,P
1552916895.7,286046998.3,P
1552916915.6,286046999.5,N
1552916935.4,286046996.7,Y
1552916955.2,286046998.3,P
1552916975.1,286046998.8,P
1552916976.0,286046998.8,P
1552916995.8,286046998.6,Y
1552917015.6,286046998.1,P
1552917035.5,286047001.2,P
1552917055.3,286047001.1,N
1552917075.1,286046998.3,N
1552917095.9,286046999.4,N
1552917115.7,286046999.1,N
1552917135.5,286046996.7,N
1552917155.4,286046997.0,N
1552917175.2,286046997.3,N
1552917195.0,286046996.9,N
1552917195.9,286046996.9,N
1552917215.8,286046997.1,N
1552917235.6,286046997.1,N
1552917255.4,286046997.2,N
1552917275.2,286046996.9,N
1552917295.1,286046996.7,N
1552917296.0,286046996.7,N
1552917315.8,286046996.8,N
1552917335.6,286046997.8,N
1552917355.5,286046997.5,N
1552917375.3,286046997.9,N
1552917395.1,286046997.9,N
1552917415.9,286046994.9,Y
1552917435.7,286046998.2,P
1552917455.5,286046998.7,P
1552917475.4,286046998.9,P
1552917495.2,286046997.0,Y
1552917515.0,286046998.6,P
1552917515.9,286046998.6,P
1552917535.8,286046998.7,P
1552917555.6,286046998.6,Y
1552917575.4,286047000.3,P
1552917595.3,286047000.5,N
